Naples, FL

8:31 AM EDT on October 24, 2017 (GMT -0400)
Naples Municipal

Weather History for KAPF - November, 2013

Change the Weather History Date:

Thursday, November 14, 2013

  Actual Average Record
Temperature  
Mean Temperature 70 °F 72 °F  
Max Temperature 80 °F 81 °F 91 °F (1993)
Min Temperature 60 °F 63 °F 39 °F (1968)
Degree Days  
Heating Degree Days 0 0  
Month to date heating degree days 0 0  
Since 1 July heating degree days 0 1  
Cooling Degree Days 5 8  
Month to date cooling degree days 154 124  
Year to date cooling degree days 3795 3719  
Growing Degree Days 20 (Base 50)    
Moisture  
Dew Point 56 °F    
Average Humidity 60    
Maximum Humidity 78    
Minimum Humidity 42    
Precipitation  
Precipitation 0.00 in 0.06 in 1.88 in (1969)
Month to date precipitation T 1.17  
Year to date precipitation 48.22 49.57  
Snow  
Snow 0.00 in - - ()
Month to date snowfall 0.0  
Since 1 July snowfall 0.0  
Since 1 September snowfall 0.0  
Snow Depth 0.00 in    
Sea Level Pressure  
Sea Level Pressure 30.16 in    
Wind  
Wind Speed 13 mph (ENE)    
Max Wind Speed 22 mph    
Max Gust Speed 28 mph    
Visibility 10 miles    
Events      
T = Trace of Precipitation, MM = Missing Value Source: NWS Daily Summary

Daily Weather History Graph

Daily Weather History Graph

Search for Another Location

Airport or City:

Trip Planner

Search our weather history database for the weather conditions in past years. The results will help you decide how hot, cold, wet, or windy it might be!

Date:

Astronomy

Nov. 14, 2013 Rise Set
Actual Time 6:45 AM EST 5:37 PM EST
Civil Twilight 6:20 AM EST 6:02 PM EST
Nautical Twilight 5:52 AM EST 6:30 PM EST
Astronomical Twilight 5:25 AM EST 6:57 PM EST
Moon 3:45 PM EST (11/14) 3:54 AM EST (11/14)
Length of Visible Light 11h 41m
Length of Day
10h 52m
Waxing Gibbous, 91% of the Moon is Illuminated
Nov 14
Waxing Gibbous
Nov 17
Full
Nov 25
Last Quarter
Dec 2
New
Dec 9
First Quarter

Hourly Weather History & Observations

Time (EST) Temp. Heat Index Dew Point Humidity Pressure Visibility Wind Dir Wind Speed Gust Speed Precip Events Conditions
12:53 AM 61.0 °F - 52.0 °F 72% 30.18 in 10.0 mi NE 11.5 mph - N/A   Clear
1:53 AM 60.1 °F - 52.0 °F 75% 30.17 in 10.0 mi NE 11.5 mph - N/A   Clear
2:53 AM 61.0 °F - 52.0 °F 72% 30.15 in 10.0 mi NE 13.8 mph 20.7 mph N/A   Clear
3:53 AM 61.0 °F - 53.1 °F 75% 30.15 in 10.0 mi NE 13.8 mph 21.9 mph N/A   Clear
4:53 AM 62.1 °F - 53.1 °F 72% 30.16 in 10.0 mi NE 13.8 mph 21.9 mph N/A   Clear
5:53 AM 60.1 °F - 53.1 °F 78% 30.17 in 10.0 mi NE 11.5 mph - N/A   Clear
6:53 AM 60.1 °F - 54.0 °F 80% 30.18 in 10.0 mi NE 11.5 mph - N/A   Clear
7:53 AM 64.0 °F - 55.0 °F 73% 30.20 in 10.0 mi NE 13.8 mph - N/A   Clear
8:53 AM 69.1 °F - 55.9 °F 63% 30.22 in 10.0 mi ENE 16.1 mph 23.0 mph N/A   Clear
9:53 AM 73.9 °F - 57.0 °F 55% 30.22 in 10.0 mi ENE 17.3 mph 25.3 mph N/A   Clear
10:53 AM 75.9 °F - 57.0 °F 52% 30.20 in 10.0 mi ENE 17.3 mph 26.5 mph N/A   Clear
11:53 AM 79.0 °F - 57.0 °F 47% 30.19 in 10.0 mi East 16.1 mph 24.2 mph N/A   Partly Cloudy
12:53 PM 80.1 °F 80.1 °F 55.0 °F 42% 30.16 in 10.0 mi ENE 18.4 mph - N/A   Clear
1:53 PM 79.0 °F - 54.0 °F 42% 30.13 in 10.0 mi ENE 12.7 mph - N/A   Partly Cloudy
2:53 PM 79.0 °F - 55.9 °F 45% 30.13 in 10.0 mi East 17.3 mph - N/A   Partly Cloudy
3:53 PM 75.9 °F - 57.0 °F 52% 30.12 in 10.0 mi ENE 15.0 mph - N/A   Partly Cloudy
4:53 PM 75.0 °F - 57.0 °F 53% 30.14 in 10.0 mi ENE 16.1 mph 21.9 mph N/A   Clear
5:53 PM 73.0 °F - 57.0 °F 57% 30.14 in 10.0 mi ENE 12.7 mph - N/A   Clear
6:53 PM 71.1 °F - 57.9 °F 63% 30.15 in 10.0 mi East 9.2 mph - N/A   Clear
7:53 PM 70.0 °F - 57.0 °F 63% 30.17 in 10.0 mi East 9.2 mph - N/A   Clear
8:53 PM 69.1 °F - 57.9 °F 68% 30.16 in 10.0 mi East 11.5 mph - N/A   Clear
9:53 PM 68.0 °F - 57.9 °F 70% 30.16 in 10.0 mi ENE 10.4 mph - N/A   Clear
10:53 PM 66.9 °F - 57.9 °F 73% 30.15 in 10.0 mi East 6.9 mph - N/A   Clear
11:53 PM 66.0 °F - 57.9 °F 75% 30.14 in 10.0 mi NE 8.1 mph - N/A   Clear